シュワルツ-ホルボーセム彗星

C/2011 K1 ( Schwartz-Holvorcem )

English version
Home page
Updated on September 3, 2011

---------------------------------------------------------------------

・ プロフィール

発見日 2011年5月26日
発見光度 19.5等
発見者 Paulo R. Holvorcem (Porto Seguro, Bahia, Brazil) and Michael Schwartz (Patagonia, AZ, U.S.A.)

・ 写真集

・ 軌道要素

Epoch 2011 Apr. 29.0 TT = JDT 2455680.5
T 2011 Apr. 21.85749 TT                                 MPC
q   3.3749136            (2000.0)            P               Q
z  -0.0002704      Peri.  167.09104     -0.20794098     -0.56916176
 +/-0.0005467      Node    70.74107     -0.95553193     +0.29204890
e   1.0009126      Incl.  122.57857     -0.20909155     -0.76861065
From 109 observations 2011 May 26-June 27, mean residual 0".5.

・ 光度変化

        m1 = 11.5 + 5 logΔ + 10.0 log r

---------------------------------------------------------------------

軌道要素はM.P.E.C. 2011-N13に掲載されたものです。
光度グラフはComet for Windowsで作成したものです。

---------------------------------------------------------------------

Copyright(C) Seiichi Yoshida (comet@aerith.net). All rights reserved.